Regional Weather Roundup
Issued by NWS

Home | Current Version | Previous Version | Text Only | Print | Product List | Glossary On
Versions: 1 2 3 4 5 6 7 8 9 10 11 12 13 14 15 16 17 18 19 20 21 22 23 24 25 26 27
000
ASUS44 KBMX 260910
RWRAL

ALABAMA REGIONAL WEATHER ROUNDUP
NATIONAL WEATHER SERVICE BIRMINGHAM AL
400 AM CDT SUN OCT 26 2014

NOTE: "FAIR" INDICATES FEW OR NO CLOUDS BELOW 12,000 FEET
WITH NO SIGNIFICANT WEATHER AND/OR OBSTRUCTIONS TO VISIBILITY.

THE REMARK "TC" DENOTES TEMPERATURE IN DEGREES CELSIUS.

ALZ001>011-014-016>018-020-261000-
NORTH ALABAMA

CITY           SKY/WX    TMP DP  RH WIND       PRES   REMARKS
MUSCLE SHOALS  FOG       55  54  94 CALM      30.02F VSB 1/4
HUNTSVILLE     CLEAR     57  54  89 CALM      30.02S
DECATUR        FOG       53  52  96 CALM      30.02F VSB 1/4
HALEYVILLE     FAIR      54  54 100 CALM      30.05F
GADSDEN        CLEAR     52  48  87 CALM      30.01S
$$

ALZ012-013-022-023-030>036-040>044-261000-
WEST CENTRAL ALABAMA

CITY           SKY/WX    TMP DP  RH WIND       PRES   REMARKS
TUSCALOOSA     PTCLDY    56  55  97 CALM      30.02F
$$

ALZ015-024>027-033>036-040>044-261000-
CENTRAL ALABAMA

CITY           SKY/WX    TMP DP  RH WIND       PRES   REMARKS
BIRMINGHAM     CLEAR     56  55  97 CALM      30.04F
MONTGOMERY     CLEAR     55  53  93 CALM      30.02F
SHELBY CO ARPT CLEAR     56  54  93 CALM      30.02F
MAXWELL AFB    CLEAR     54  54 100 S2        30.01F
GREENVILLE     FAIR      55  51  86 N3        30.01F
$$

ALZ019-021-028-029-037-038-045>048-261000-
EAST CENTRAL ALABAMA

CITY           SKY/WX    TMP DP  RH WIND       PRES   REMARKS
ANNISTON       CLEAR     51  49  92 W3        30.02F FOG
ALEXANDER CITY CLEAR     54  52  94 CALM      30.01F
AUBURN         CLEAR     57  52  82 NW5       30.04S
$$

ALZ051>064-261000-
SOUTHWEST ALABAMA

CITY           SKY/WX    TMP DP  RH WIND       PRES   REMARKS
MOBILE         CLEAR     53  53 100 CALM      30.03F FOG
BROOKLEY FIELD CLEAR     56  56 100 CALM      30.04S FOG
EVERGREEN      CLEAR     53  50  89 CALM      30.02F
$$

ALZ049-050-065>069-261000-
SOUTHEAST ALABAMA

CITY           SKY/WX    TMP DP  RH WIND       PRES   REMARKS
DOTHAN         CLEAR     54  50  86 CALM      30.03F
OZARK          CLEAR     53  49  86 NW3       30.00F
TROY           CLEAR     50  48  93 CALM      30.02F
EUFAULA        FAIR      52  50  93 CALM      29.99F
$$



USA.gov is the U.S. government's official web portal to all federal, state and local government web resources and services.